Location: Barèges
(42.8962°N, 0.0620°E)
Time: 01:19:29
(UTC+00:00)

Daily predictions for brighter satellites

Satellite Brightness Start Highest point End
(mag) Time Altitude Azimuth Time Altitude Azimuth Time Altitude Azimuth
USA 267 3.9 03:15:41 10° NE 03:20:18 50° NE 03:20:18 50° NE
Cosmos 2333 Rocket 4.3 03:39:30 17° N 03:39:30 17° N 03:40:51 10° NNE
COSMOS 2455 4.3 03:45:06 27° N 03:45:06 27° N 03:47:52 10° NNE
ACS3 Solar Sail 3.1 03:45:08 10° N 03:47:53 29° N 03:47:53 29° N
Cosmos 2360 Rocket 3.9 03:59:09 21° N 03:59:09 21° N 04:01:12 10° NNE
Cosmos 2322 Rocket 4.0 03:59:31 19° N 03:59:31 19° N 04:01:20 10° N
USA 234 3.3 03:51:10 10° ESE 03:57:41 71° NE 03:58:53 58° NNW
Gbstr 26 Del rocket 4.0 03:59:16 52° E 03:59:16 52° E 04:03:44 10° ENE
SL-16 R/B 4.4 04:06:02 13° N 04:06:02 13° N 04:06:43 10° N
Cosmos 1943 Rocket 3.9 04:06:18 11° N 04:10:53 29° NE 04:15:37 10° ESE
ARGOS 3.2 04:11:30 10° N 04:16:17 68° NNW 04:16:17 68° NNW
PAYLOAD A 4.1 04:12:20 10° NNE 04:17:46 80° ESE 04:20:29 30° S
Cosmos 1140 Rocket 4.3 04:15:56 19° N 04:19:20 47° ENE 04:24:15 10° SE
Cosmos 1809 Rocket 4.3 04:15:46 10° S 04:21:53 89° WNW 04:28:01 10° N
CZ-2C R/B 2.5 04:17:14 10° N 04:21:32 65° N 04:21:32 65° N
ADEOS Rocket 4.0 04:21:17 10° N 04:25:40 35° NW 04:25:40 35° NW
NOSS 3-1 (C) 2.7 04:27:25 82° WNW 04:27:28 82° NW 04:32:57 10° NE
Cosmos 2100 Rocket 4.0 04:27:29 10° N 04:33:40 82° E 04:39:50 10° S
Cosmos 2219 Rocket 3.1 04:36:50 32° NNW 04:36:50 32° NNW 04:40:44 10° N
NOSS 0 Rocket 4.3 04:35:46 10° S 04:41:48 64° ESE 04:47:53 10° NNE
IRS-1D 4.2 04:37:25 10° NNE 04:42:17 52° E 04:47:04 10° S
COSMOS 2428 2.6 04:41:30 22° SSW 04:45:15 79° WNW 04:50:59 10° NNE
USA 59 Rocket 1.1 04:50:47 21° N 04:50:47 21° N 04:51:59 10° NNE
Cosmos 2322 3.7 04:50:01 30° SW 04:52:45 60° WNW 04:58:23 10° NNE
SL-08 RB Rocket 3.9 04:49:25 10° N 04:53:29 45° WNW 04:53:29 45° WNW
Cosmos 1459 Rocket 3.9 04:48:32 10° N 04:54:55 77° W 05:01:13 10° S
COSMO-SKYMED 1 3.8 04:53:39 10° SE 04:57:29 39° ENE 05:01:20 10° N
Meteor 2-21 4.3 04:51:30 10° SSW 04:57:33 64° W 05:03:35 10° N
SKYMED 2 4.1 04:54:28 10° SSE 04:58:43 59° ENE 05:03:00 10° N
FengYun 1-2 T 4.1 04:53:19 10° NNE 04:58:54 85° WNW 05:04:29 10° SSW
Cosmos 1727 Rocket 4.2 04:54:17 10° SSW 05:00:08 44° WNW 05:06:05 10° N
Cosmos 407 Rocket 4.0 04:56:17 10° NNW 05:01:19 57° ENE 05:06:20 10° SE
Cosmos 2228 Rocket 4.5 05:03:28 22° NNW 05:03:28 22° NNW 05:05:25 10° N
Cosmos 1023 Rocket 4.3 04:58:46 18° NNW 05:02:28 67° WSW 05:07:27 10° S
USA 267 4.0 04:58:57 10° NE 05:04:47 36° NNW 05:07:39 25° WNW
Cosmos 1980 4.0 04:59:27 10° SSW 05:05:03 69° ESE 05:10:41 10° NNE
Cosmos 1725 Rocket 4.0 04:58:59 10° N 05:05:21 88° E 05:11:40 10° S
NOSS 3-1 (A) 2.8 05:07:03 10° SW 05:11:37 89° SE 05:17:06 10° NE
Cosmos 1802 Rocket 3.9 05:06:53 10° NNW 05:13:15 74° W 05:19:28 10° S
Cosmos 1269 Rocket 4.2 05:09:27 16° NW 05:13:29 50° WSW 05:18:33 10° S
Cosmos 1328 3.8 05:11:04 10° SSW 05:14:33 44° WNW 05:18:04 10° N
Cosmos 1703 Rocket 3.5 05:11:37 10° SSW 05:15:53 59° W 05:20:13 10° N
Cosmos 921 Rocket 4.1 05:16:56 25° WSW 05:16:56 25° WSW 05:20:02 10° SSW
Cosmos 2233 Rocket 4.2 05:10:14 10° N 05:16:35 74° E 05:22:49 10° SSE
Cosmos 2278 Rocket 2.2 05:12:38 10° NNW 05:18:20 89° ENE 05:23:59 10° SSE
NOSS 2-1 (E) 3.7 05:18:53 30° NW 05:18:53 30° NW 05:21:44 10° NNE
Meteor 2-16 Rocket 4.3 05:14:05 10° SSW 05:20:09 71° W 05:26:16 10° N
CZ-3 R/B 3.7 05:10:45 10° SW 05:20:37 24° S 05:25:25 10° SE
Cosmos 2237 Rocket 2.2 05:15:38 10° SSW 05:21:19 86° ESE 05:27:00 10° NNE
Cosmos 1939 Rocket 3.6 05:19:39 10° N 05:22:59 29° WNW 05:23:42 27° W
Cosmos 2173 Rocket 4.3 05:18:27 10° NNW 05:24:06 41° W 05:29:44 10° SSW
Cosmos 2292 Rocket 3.6 05:22:19 10° SSW 05:26:19 70° W 05:31:32 10° N
SL-08 R/B 4.4 05:21:19 10° N 05:27:26 79° W 05:33:36 10° S
BlueWalker 3 1.8 05:27:40 26° WNW 05:29:31 62° SW 05:33:04 10° SE
USA 276 2.0 05:29:39 35° W 05:30:24 48° SW 05:33:06 10° SE
Meteor 1-24 Rocket 3.9 05:25:22 10° SSW 05:30:57 48° WNW 05:36:23 10° N
Helios 1A Rocket 2.4 05:28:33 10° S 05:31:53 56° W 05:35:14 10° NNW
ACS3 Solar Sail 3.5 05:30:49 10° NW 05:32:02 12° NW 05:32:02 12° NW
Cosmos 2369 Rocket 4.5 05:31:28 10° N 05:35:38 20° NE 05:39:47 10° E
CZ-4 R/B 4.0 05:32:52 10° N 05:37:37 51° WNW 05:42:14 10° SW
Cosmos 1782 Rocket 3.5 05:35:15 10° NNW 05:39:37 67° W 05:43:56 10° S
USA 234 4.0 05:35:06 10° SSE 05:40:58 35° SW 05:46:14 13° WNW
Cosmos 2123 Rocket 4.4 05:35:52 10° SW 05:41:40 40° WNW 05:47:28 10° N
Meteor 2-5 Rocket 4.1 05:36:31 10° SW 05:42:08 43° WNW 05:47:44 10° N
Cosmos 1420 Rocket 4.0 05:38:13 10° SSW 05:43:28 88° WNW 05:48:48 10° NNE
Gbstr 26 Del rocket 4.1 05:41:19 16° W 05:45:06 43° NNW 05:50:57 10° NE
NOAA 12 4.3 05:41:47 10° N 05:46:55 51° WNW 05:52:03 10° SW
Cosmos 44 Rocket 4.1 05:43:41 12° NW 05:47:46 34° WSW 05:52:22 10° S
Cosmos 1943 Rocket 2.5 05:49:32 10° NW 05:54:45 43° WSW 05:59:54 10° S
Cosmos 2016 Rocket 4.4 05:49:30 10° NNW 05:55:25 41° W 06:01:17 10° SSW
Cosmos 1812 3.4 05:55:42 10° N 05:58:31 41° E 06:01:17 10° SSE
CZ-2C R/B 4.3 05:58:11 10° NW 05:59:28 11° WNW 06:00:45 10° WNW
Cosmos 1300 Rocket 4.1 05:56:05 10° NNW 06:00:01 34° W 06:03:54 10° SSW
Cosmos 2346 Rocket 4.4 05:54:10 10° SSW 06:00:19 72° W 06:06:26 10° N
SMAP 4.3 05:56:46 10° NNE 06:01:16 47° E 06:05:44 10° S
SJ 16-02 1.5 06:07:26 10° NNW 06:11:46 75° ENE 06:16:01 10° SSE
Iridium 4 Rocket 4.3 06:09:30 10° NNW 06:12:36 20° W 06:15:38 10° SW
Aureole 3 Rocket 3.5 06:08:29 10° N 06:12:57 81° W 06:19:11 10° S
Cosmos 2061 Rocket 4.3 06:10:01 10° NNW 06:15:48 43° W 06:21:34 10° SSW
CBERS-1 4.0 06:11:59 10° N 06:17:05 70° WNW 06:22:09 10° SSW
